Location: Borotín
(49.5055°N, 14.6142°E)
Time: 11:45:46
(UTC+00:00)

Cosmos 2084 Rocket - Pass Details

Date: 27 May 2022
Orbit: 497 x 678 km, 62.8° (Epoch: 26 June)

Event Time Altitude Azimuth Distance (km) Brightness Sun altitude
Exits shadow 00:19:37 35° 169° (SSE) 820 3.7 -17.0°
Maximum altitude 00:20:37 45° 126° (SE) 694 3.7 -16.9°
Drops below altitude 10° 00:24:15 10° 54° (NE) 1,706 6.7 -16.7°
Sets 00:26:28 0° 48° (NE) 2,596 7.9 -16.6°
